Regional Weather Roundup
Issued by NWS

Home | Current Version | Previous Version | Graphics & Text | Print | Product List | Glossary On
Versions: 1 2 3 4 5 6 7 8 9 10 11 12 13 14 15 16 17 18 19 20 21 22 23 24 25 26 27 28 29 30 31 32 33 34 35 36 37 38 39 40 41 42 43 44 45 46 47 48 49 50
000
ASUS43 KMPX 240710
RWRMN
WEATHER ROUNDUP FOR MINNESOTA
NATIONAL WEATHER SERVICE TWIN CITIES/CHANHASSEN MN
200 AM CDT FRI OCT 24 2014


NOTE: "FAIR" INDICATES FEW OR NO CLOUDS BELOW 12,000 FEET WITH NO
SIGNIFICANT WEATHER AND/OR OBSTRUCTIONS TO VISIBILITY. N/A MEANS
CURRENT SKY AND/OR WEATHER CONDITIONS ARE NOT AVAILABLE.

MNZ060>063-068>070-240800-
   Twin Cities Metro

CITY           SKY/WX    TMP DP  RH WIND       PRES   REMARKS
TWIN CITIES    MOCLDY    48  46  93 E7        29.96F
ST PAUL        PTCLDY    47  47 100 SE8       29.98F FOG
CRYSTAL        MOCLDY    49  46  90 S5        29.94F
BLAINE         MOCLDY    52  50  93 SE6       29.95F FOG
LAKEVILLE      PTCLDY    46  45  93 S5        29.97F
EDEN PRAIRIE   MOCLDY    49  45  86 S6        29.95F
SOUTH ST PAUL  FOG       48  47  96 SE5       29.97F VSB 1
LAKE ELMO      FOG       45  45 100 CALM      29.98F VSB 1/4
$$
MNZ001>005-007-008-013>017-022>024-027-028-240800-
   Northwest Minnesota

CITY           SKY/WX    TMP DP  RH WIND       PRES   REMARKS
BEMIDJI        CLOUDY    55  42  62 SW7       29.83R
HALLOCK        MOCLDY    46  39  76 S7        29.71F
ROSEAU         MOCLDY    50  43  76 S10       29.74F
WARROAD        CLOUDY    52  43  71 CALM      29.75S
THIEF RVR FALL MOCLDY    50  39  66 S9        29.77F
CROOKSTON      MOCLDY    50  43  76 S12       29.77F
FOSSTON        MOCLDY    50  43  76 S12       29.82R
DETROIT LAKES  MOCLDY    54  45  71 S6        29.85R
MOORHEAD       MOCLDY    48  45  87 S7        29.83S
PARK RAPIDS    MOCLDY    51  41  68 S6        29.85F
MAHNOMEN       FAIR      51  43  74 S10       29.82S
$$
MNZ006-009>011-018-025>026-240800-
   North Central Minnesota

CITY           SKY/WX    TMP DP  RH WIND       PRES   REMARKS
BAUDETTE       CLOUDY    51  40  65 S6        29.77R
FLAG ISLAND    CLOUDY    50  46  87 S7        29.73R
INTL FALLS     MOCLDY    50  40  68 S5        29.79F
WASKISH        CLOUDY    54  39  58 CALM      29.80S
BIG FORK       MOCLDY    50  41  71 S7        29.84F
LONGVILLE      CLOUDY    55  39  54 S5        29.86S
GRAND RAPIDS   CLOUDY    48  41  76 S9        29.87F
CRANE LAKE     CLOUDY    46  45  93 S3        29.85F
ORR            MOCLDY    46  43  87 S7        29.82F
COOK           MOCLDY    54  45  71 S7G16     29.85F
WALKER         FAIR      53  40  61 SW9       29.84F
$$
MNZ012-019>021-037-240800-
   Northeast Minnesota

CITY           SKY/WX    TMP DP  RH WIND       PRES   REMARKS
DULUTH         FOG       49  46  90 S9        29.91F VSB 3/4
ELY            MOCLDY    45  45 100 CALM      29.88F
HIBBING        FOG       37  35  92 CALM      29.88F VSB 1/2
EVELETH        FOG       34  34 100 CALM      29.89F VSB 1/4
DULUTH HARBOR  CLOUDY    46  45  93 CALM      29.93F FOG
TWO HARBORS    HAZE      45  34  65 CALM      29.91S VSB<1/4
SILVER BAY     FOG       45  43  93 CALM      29.91S VSB 1/4
GRAND MARAIS     N/A     48  47  96 CALM      29.93S
G MARAIS ARPRT FOG       46  43  87 S6        29.92F VSB 1/2
$$
MNZ029>031-032-039>041-046>048-054>057-064-240800-
   West Central Minnesota

CITY           SKY/WX    TMP DP  RH WIND       PRES   REMARKS
FERGUS FALLS   PTCLDY    48  39  71 SE7       29.87R
WHEATON        PTCLDY    45  39  81 SE7       29.86S
MORRIS         CLEAR     46  43  87 SE8       29.86S
ALEXANDRIA     PTCLDY    52  43  71 S7        29.89S
ELBOW LAKE     FAIR      47  42  82 S8        29.86S
WADENA         MOCLDY    46  41  81 CALM      29.87S
GLENWOOD       PTCLDY    48  43  81 CALM      29.89S
APPLETON       PTCLDY    52  43  71 SE3       29.86S
BENSON         CLEAR     48  43  81 S5        29.87S
ORTONVILLE     PTCLDY    46  41  81 SE5       29.85F
MADISON        PTCLDY    48  43  81 S8        29.85F
WILLMAR        FAIR      48  43  81 SE7       29.90F
$$
MNZ033>034-036-042>043-049>051-058-059-240800-
   Central Minnesota

CITY           SKY/WX    TMP DP  RH WIND       PRES   REMARKS
ST CLOUD       CLOUDY    47  40  76 SE6       29.91F
SAUK CENTRE    FAIR      48  41  76 CALM      29.89S
PAYNESVILLE    PTCLDY    49  40  72 SE8       29.90F
AITKIN         CLOUDY    52  45  76 S3        29.88S
PINE RIVER     CLOUDY    46  39  76 CALM      29.91S
BRAINERD       CLOUDY    47  39  74 S6        29.89F
STAPLES        CLOUDY    46  39  76 S6        29.88F
LONG PRAIRIE   FAIR      50  41  71 S3        29.89F
LITTLE FALLS   CLOUDY    46  37  71 CALM      29.90S
LITCHFIELD     MOCLDY    52  43  71 CALM      29.92F
BUFFALO        MOCLDY    49  39  69 CALM      29.94F
MAPLE LAKE     MOCLDY    48  42  80 SE3       29.93F
$$
MNZ037-044-045-052-053-240800-
   East Central Minnesota

CITY           SKY/WX    TMP DP  RH WIND       PRES   REMARKS
PRINCETON      CLOUDY    50  46  87 SE6       29.92F
MORA             N/A     45  45 100 CALM      29.94F FOG
CAMBRIDGE      MOCLDY    52  43  71 S6        29.92F HAZE
RUSH CITY      CLOUDY    47  46  95 S5        29.94F
MOOSE LAKE     CLOUDY    48  46  93 S7        29.91F FOG
HINCKLEY       CLOUDY    48  48 100 SE5       29.94F FOG
CLOQUET        CLOUDY    48  46  93 S8        29.92F FOG
MCGREGOR       CLOUDY    48  45  87 CALM      29.91S
$$
MNZ071>073-080-081-089-090-097-098-240800-
   Southwest Minnesota

CITY           SKY/WX    TMP DP  RH WIND       PRES   REMARKS
MONTEVIDEO     CLEAR     50  45  81 S7        29.88F
GRANITE FALLS  PTCLDY    49  43  81 SE8       29.90S
CANBY          PTCLDY    57  47  70 S12G18    29.87S
MARSHALL       CLEAR     55  43  62 SW16      29.88S
REDWOOD FALLS  MOCLDY    49  42  77 S7        29.91F
OLIVIA         MOCLDY    50  43  76 SE7       29.90F
PIPESTONE      PTCLDY    50  45  81 S9        29.90S
WINDOM         PTCLDY    50  43  76 S6        29.94F
WORTHINGTON    PTCLDY    50  43  76 S13       29.94F
JACKSON        PTCLDY    52  41  66 S7        29.95F
TRACY          PTCLDY    56  45  66 S13       29.90F
SLAYTON        CLEAR     48  44  84 S8        29.92F
$$
MNZ065>067-074>077-082>085-091>093-240800-
   South Central Minnesota

CITY           SKY/WX    TMP DP  RH WIND       PRES   REMARKS
MANKATO        MOCLDY    46  37  71 S10       29.96F
NEW ULM        MOCLDY    48  43  81 S9        29.93F
ST JAMES       MOCLDY    52  41  66 S7        29.95F
FAIRMONT       PTCLDY    45  37  76 S9        29.96F
GLENCOE        PTCLDY    49  41  73 SE3       29.94F
FARIBAULT      PTCLDY    46  46 100 S5        29.99S
OWATONNA       PTCLDY    48  45  87 SE5       29.99S
WASECA         PTCLDY    43  37  81 SE5       30.00S
ALBERT LEA     PTCLDY    46  46 100 S3        30.00S FOG
$$
MNZ078>079-086>088-094>096-240800-
   Southeast Minnesota

CITY           SKY/WX    TMP DP  RH WIND       PRES   REMARKS
ROCHESTER      FOG       46  45  96 S9        30.02R VSB 1/4
RED WING       CLOUDY    48  48 100 SE3       30.00R FOG
STANTON        CLEAR     49  46  89 S3        29.97S
DODGE CENTER   CLEAR     46  45  93 SW6       30.01R FOG
WINONA         CLOUDY    52  50  93 CALM      30.03S FOG
AUSTIN         MIX PCPN  46  46 100 S3        30.01S VSB<1/4
PRESTON        FOG       49  48  98 S7        30.03S VSB 1/4
$$
ABBREVIATIONS USED IN REMARKS
   TC - TEMPERATURES IN CELSIUS
  WCI - WIND CHILL INDEX
   HX - HEAT INDEX
  VSB - VISIBILITY
$$



USA.gov is the U.S. government's official web portal to all federal, state and local government web resources and services.